Back to catalog

DELTA 1 DEB

AliveSSO
NORAD 19359·DEBRIS·🇺🇸 United States

Launched Mar 5, 1978 from Vandenberg Space Force Base

Loading…

Next Passes (next 24 hours)

TLE

AgingSource: Space-Track

Epoch: Sep 10, 2026, 07:54 UTC

1 19359U 78026HM  26253.32919788  .00001607  00000-0  37217-3 0  9992
2 19359  98.5671 280.3330 0014813 284.4361  87.9980 14.56448914514837

Track DELTA 1 DEB in real time with AllMySat

Download on the App Store